#timestamp,LO_Frequency,Hit,StdDev 
1549605615.1,286047000.9,N
1549605616.0,286047000.9,N
1549605635.8,286046998.2,N
1549605655.6,286047000.6,N
1549605675.5,286046998.3,N
1549605695.3,286046998.7,N
1549605715.2,286046998.8,N
1549605735.9,286046998.8,N
1549605755.7,286046998.1,N
1549605775.6,286047000.0,N
1549605795.4,286047002.3,N
1549605815.2,286047002.3,N
1549605835.1,286047002.4,N
1549605836.0,286047002.4,N
1549605855.8,286046999.9,N
1549605875.7,286047000.5,N
1549605895.5,286047000.4,N
1549605915.3,286046998.8,N
1549605935.2,286046999.4,N
1549605955.0,286046999.5,N
1549605955.9,286046999.5,N
1549605975.7,286046999.0,N
1549605995.6,286047000.7,N
1549606015.4,286046999.0,N
1549606035.3,286046999.2,N
1549606055.1,286046999.3,N
1549606056.0,286046999.3,N
1549606075.8,286046999.3,N
1549606095.7,286046999.1,N
1549606115.5,286046999.5,N
1549606135.3,286046996.6,N
1549606155.2,286046997.0,N
1549606175.0,286047001.2,N
1549606175.9,286047001.2,N
1549606195.8,286047001.1,N
1549606215.6,286047001.0,N
1549606235.4,286046998.5,N
1549606255.3,286047000.9,N
1549606275.1,286047000.2,N
1549606295.8,286047000.6,N
1549606315.7,286047002.3,N
1549606335.5,286047000.4,N
1549606355.4,286047002.2,N
1549606375.2,286047002.8,N
1549606395.0,286047002.6,N
1549606395.9,286047002.6,N
1549606415.8,286047001.7,N
1549606435.6,286047002.7,N
1549606455.4,286046999.9,N
1549606475.3,286047002.5,N
1549606495.1,286047002.4,N
1549606515.9,286047002.8,N
1549606535.7,286047000.4,N
1549606555.5,286047000.4,N
1549606575.4,286046999.9,N
1549606595.2,286047000.9,N
1549606615.0,286046998.4,N
1549606615.9,286046998.4,N
1549606635.8,286047000.5,N
1549606655.6,286046999.8,N
1549606675.5,286047002.8,N
1549606695.3,286047002.4,N
1549606715.1,286047001.9,N
1549606735.9,286047002.0,N
1549606755.7,286047002.8,N
1549606775.5,286047002.8,N
1549606795.4,286047002.4,N
1549606815.2,286047000.6,N
1549606835.1,286047000.6,N
1549606836.0,286047000.6,N
1549606855.8,286047001.1,N
1549606875.6,286047002.3,N
1549606895.5,286047000.4,N
1549606915.3,286047001.1,N
1549606935.1,286047002.5,N
1549606955.9,286047002.8,N
1549606975.7,286047000.1,N
1549606995.6,286047000.0,N
1549607015.4,286047001.3,N
1549607035.2,286047002.0,N
1549607055.1,286047001.8,N
1549607056.0,286047001.8,N
1549607075.8,286047004.4,Y
1549607095.7,286047002.4,P
1549607115.5,286047002.3,P
1549607135.3,286047002.4,P
1549607155.2,286046999.9,N
1549607175.0,286047000.2,N
1549607175.9,286047000.2,N
1549607195.8,286047000.3,N
1549607215.6,286047000.6,N
1549607235.4,286047002.1,N
1549607255.3,286047000.2,N
1549607275.1,286047002.0,N
1549607295.8,286047004.0,Y
1549607315.7,286047002.2,P
1549607335.5,286047001.8,P
1549607355.4,286047002.5,P
1549607375.2,286047002.2,Y
1549607395.0,286047001.1,P
1549607395.9,286047001.1,N
1549607415.8,286047001.0,N
1549607435.6,286046998.1,Y
1549607455.4,286046999.5,P
1549607475.3,286046999.1,N
1549607495.1,286046996.6,P
1549607515.9,286046999.0,N
1549607535.7,286046998.3,N
1549607555.5,286046998.3,N
1549607575.4,286046999.1,N
1549607595.2,286046996.6,N
1549607615.0,286046998.6,N
1549607615.9,286046998.6,N
1549607635.8,286046998.7,N
1549607655.6,286046998.5,N
1549607675.5,286047000.0,N
1549607695.3,286047000.7,N
1549607715.1,286047001.0,N
1549607735.9,286047000.1,N
1549607755.7,286047002.7,N
1549607775.5,286046999.8,N
1549607795.4,286047002.8,N
1549607815.2,286047001.0,N
1549607835.1,286047001.0,N
1549607836.0,286047001.0,N
1549607855.8,286047001.1,N
1549607875.6,286047000.6,N
1549607895.5,286047001.0,N
1549607915.3,286047000.5,N
1549607935.1,286046998.8,N
1549607955.9,286046998.1,N
1549607975.7,286047001.1,N
1549607995.6,286047000.3,N
1549608015.4,286047000.5,N
1549608035.2,286047000.4,N
1549608055.1,286047003.7,N
1549608056.0,286047003.7,N
1549608075.8,286047004.0,N
1549608095.6,286047003.9,N
1549608115.5,286047004.0,N
1549608135.3,286047003.8,N
1549608155.2,286047001.7,N
1549608175.9,286047002.6,N
1549608195.7,286047001.7,N
1549608215.6,286047002.5,N
1549608235.4,286047000.2,N
1549608255.2,286047000.1,N
1549608275.1,286047002.3,N
1549608276.0,286047002.3,N
1549608295.8,286047003.5,N
1549608315.7,286047001.6,N
1549608335.5,286047001.0,N
1549608355.3,286047002.6,N
1549608375.2,286047001.6,N
1549608395.9,286047002.6,N
1549608415.7,286047004.0,N
1549608435.6,286047001.3,N
1549608455.4,286047003.3,N
1549608475.2,286047003.0,N
1549608495.1,286047005.4,Y
1549608496.0,286047005.4,P
1549608515.8,286047001.7,N
1549608535.7,286047004.0,N
1549608555.5,286047001.7,N
1549608575.3,286047002.7,N
1549608595.2,286047002.8,N
1549608615.0,286047002.3,N
1549608615.9,286047002.3,N
1549608635.7,286047000.3,N
1549608655.6,286046998.5,N
1549608675.4,286046998.5,N
1549608695.3,286047001.1,N
1549608715.1,286046996.9,N
1549608716.0,286046996.9,N
1549608735.8,286046999.6,N
1549608755.7,286046996.9,N
1549608775.5,286046998.9,N
1549608795.3,286046998.5,N
1549608815.2,286046998.2,N
1549608835.0,286047000.2,N
1549608835.9,286047000.2,N
1549608855.8,286047002.6,N
1549608875.6,286046999.7,N
1549608895.4,286046999.7,N
1549608915.3,286046999.8,N
1549608935.1,286047002.5,N
1549608955.8,286046999.9,N
1549608975.7,286047002.3,N
1549608995.5,286046999.7,N
1549609015.4,286047001.9,N
1549609035.2,286047002.3,N
1549609055.0,286047002.0,N
1549609055.9,286047002.0,N
1549609075.8,286047002.5,N
1549609095.6,286047002.4,N
1549609115.4,286047002.7,N
1549609135.3,286047002.7,N
1549609155.1,286046999.9,N
1549609175.9,286047004.1,N
1549609195.7,286047001.4,N
